Location: Miss�
(46.9484°N, 0.1922°W)
Time: 02:01:16
(UTC+00:00)

Cosmos 1461 - Pass Details

Date: 02 March 2021
Orbit: 505 x 659 km, 65.0° (Epoch: 17 April)

Event Time Altitude Azimuth Distance (km) Brightness Sun altitude
Rises 19:01:11 0° 232° (SW) 2,963 7.3 -13.3°
Reaches altitude 10° 19:03:33 10° 238° (WSW) 2,065 6.6 -13.7°
Maximum altitude 19:08:06 48° 313° (NW) 864 4.1 -14.5°
Drops below altitude 10° 19:12:42 10° 28° (NNE) 2,075 5.5 -15.2°
Enters shadow 19:14:34 - 33° (NNE) 2,785 6.1 -15.6°
